Theta_e
346 343 346 347 346 346 341 336 335 336 339 340 337 335 335 336 337 336 334 332 330 330 331 331 331 332 333 333 332 334 337 337 337 338 338 338 338 338 337 336 337 337 338 338 338 338 339 339 340 339 340 340 339 340 339 339 338 337 337 337 337 339 340
345 344 345 344 344 346 341 334 335 338 339 338 335 336 338 338 337 335 333 332 331 331 331 331 332 332 332 331 331 334 336 336 336 336 335 335 335 336 336 336 337 337 336 337 337 338 338 339 339 339 339 340 340 340 339 338 338 338 338 339 338 339 339
344 344 344 343 345 347 341 334 334 337 339 336 335 337 339 337 336 335 334 333 332 331 330 330 332 332 330 331 332 334 334 333 333 333 333 333 333 333 333 334 335 335 334 335 335 336 337 336 337 336 337 337 338 337 337 336 336 337 339 339 339 339 339
343 343 342 343 345 343 336 333 334 336 337 336 336 338 338 337 336 335 334 333 332 332 331 330 332 332 330 331 333 333 333 332 332 332 332 333 332 333 333 333 333 333 333 334 334 335 336 335 335 335 335 336 335 336 336 336 337 337 339 340 340 340 340
341 341 343 343 346 345 338 332 333 337 336 337 337 339 339 337 337 336 335 334 333 332 332 331 332 331 329 331 332 332 331 331 331 331 331 332 332 332 332 332 332 332 332 333 333 334 335 335 335 335 335 336 336 336 336 336 337 337 338 338 339 340 340
340 341 343 343 344 348 339 330 332 336 335 337 338 338 339 338 337 336 335 334 334 332 332 331 331 330 329 330 331 329 330 330 330 331 331 331 330 329 330 331 331 332 332 333 333 334 335 335 335 334 335 335 335 336 336 336 337 337 337 338 339 339 340
339 340 341 341 344 347 337 329 333 337 335 337 339 339 339 338 337 337 336 334 334 332 332 331 331 330 329 329 329 328 329 330 330 330 331 330 329 327 329 331 331 332 333 333 333 334 334 334 333 333 333 333 333 333 333 334 336 337 337 338 338 339 339
338 339 341 341 345 344 334 329 333 335 336 338 338 339 339 339 338 337 336 334 333 333 331 331 330 329 329 328 327 328 329 330 330 329 330 330 328 327 329 331 332 332 333 333 333 334 334 332 332 332 332 331 331 331 330 331 333 335 336 337 338 338 339
339 339 341 342 343 337 330 330 333 334 336 338 338 339 338 338 338 336 336 335 334 334 332 331 330 328 328 327 326 328 328 329 329 329 329 330 329 329 329 330 330 332 334 334 334 334 333 332 332 331 331 331 331 331 330 331 332 334 335 336 336 337 338
341 340 343 343 341 334 329 331 333 334 337 338 337 339 338 338 338 336 336 335 334 334 332 331 330 326 326 326 325 327 328 329 329 329 329 329 328 329 330 330 330 331 333 335 334 334 334 333 334 334 333 333 331 331 330 330 332 334 336 335 335 336 337
342 342 345 345 342 339 337 336 335 334 336 337 337 338 337 338 337 336 336 335 334 333 332 330 329 327 326 325 325 327 328 328 329 330 329 328 328 329 329 330 329 329 331 333 333 335 335 335 336 336 335 334 333 331 330 331 332 334 336 335 335 336 336
342 343 345 345 346 345 343 340 335 333 335 336 337 337 337 337 337 336 335 334 333 332 331 330 329 327 325 325 325 326 328 328 329 330 330 328 328 329 329 328 329 328 329 329 330 331 332 334 336 335 335 334 333 331 331 332 333 334 336 336 336 335 335
342 343 343 344 345 345 346 344 337 334 336 337 336 337 337 337 336 334 332 331 331 331 330 329 328 326 325 325 324 326 328 329 329 331 330 329 329 329 329 329 328 328 328 328 328 328 329 330 333 334 334 333 332 331 331 333 334 334 335 336 335 334 335
343 344 341 342 345 346 348 349 341 334 335 337 337 337 338 337 335 332 331 329 328 329 329 327 326 326 325 325 325 326 328 328 328 330 331 330 329 330 330 329 328 328 328 327 328 328 328 329 331 332 332 332 331 331 331 333 334 332 331 332 333 334 334
344 343 343 344 346 347 349 350 343 334 334 338 337 337 337 335 333 331 330 327 325 326 327 326 326 326 326 326 326 326 326 326 327 329 330 330 330 331 331 331 329 328 328 328 328 328 328 328 329 330 331 330 330 331 332 332 332 329 328 330 333 333 334
343 343 346 347 347 347 347 347 340 331 334 338 337 338 337 333 332 331 328 325 323 324 325 326 326 327 326 327 327 326 325 325 327 328 328 329 329 331 332 332 330 329 328 329 328 329 329 328 328 328 330 330 330 331 332 331 329 328 328 330 331 331 332
342 344 348 348 345 345 346 346 337 329 332 337 336 337 335 332 331 330 328 326 324 324 325 326 326 327 327 326 327 327 326 325 327 327 327 327 328 330 332 332 332 330 330 329 327 328 329 329 329 328 329 329 329 331 332 330 328 328 329 330 331 331 332
343 345 347 346 342 342 347 350 341 330 331 335 335 335 333 331 331 329 328 328 325 325 326 326 327 327 327 326 326 328 326 325 327 327 326 326 326 328 331 332 333 332 330 329 328 328 329 329 329 328 328 329 330 331 332 330 328 327 327 329 330 330 332
341 342 346 343 341 344 346 344 336 331 332 334 334 333 331 331 331 329 329 328 326 326 326 326 327 326 325 325 326 327 326 326 327 326 325 326 326 327 329 331 333 332 329 328 327 327 329 328 328 327 327 329 330 330 331 330 327 326 325 327 329 330 331
337 341 344 339 340 343 339 332 329 331 333 333 332 332 331 331 330 329 329 328 327 327 326 326 327 326 325 326 326 327 326 325 326 326 325 327 327 328 329 331 333 331 327 326 326 327 329 328 328 327 327 329 331 330 329 329 327 325 324 325 327 329 331
336 338 340 339 341 339 331 328 330 331 332 332 331 332 331 331 330 329 330 329 329 328 327 326 327 327 326 327 327 327 327 325 325 326 326 327 328 329 330 331 331 328 325 325 326 326 328 328 328 328 328 329 331 329 327 328 328 325 324 324 325 328 330
336 336 339 339 337 333 328 328 331 331 331 332 331 331 332 331 331 330 330 330 329 329 328 327 327 327 327 327 327 328 326 325 325 324 324 326 328 330 330 329 327 326 324 325 326 327 328 328 328 328 328 328 330 329 325 327 328 325 324 325 325 327 329
333 332 334 332 329 329 329 330 332 331 331 331 330 331 332 331 331 331 331 331 330 330 329 328 327 327 327 327 328 328 325 324 324 322 323 326 328 328 329 328 326 325 325 326 326 327 328 329 328 329 329 328 329 329 325 325 327 325 324 324 324 326 328
327 327 329 328 327 329 329 330 331 331 330 331 330 331 331 331 331 331 331 331 331 330 329 329 328 328 328 328 328 325 324 323 324 323 324 327 327 327 328 327 326 326 326 327 327 327 327 328 328 328 329 328 329 329 326 325 326 327 326 325 325 326 327
328 326 328 329 329 330 330 330 330 330 330 331 330 331 331 331 331 332 331 331 331 331 330 329 329 329 329 329 328 326 325 324 324 323 323 326 327 327 326 326 326 325 326 326 328 327 325 325 325 325 328 329 328 327 327 326 326 328 327 325 325 327 326
332 328 328 330 330 330 331 331 330 331 331 331 330 331 331 331 331 331 331 331 331 331 330 330 331 330 329 329 329 328 325 323 323 323 322 324 325 324 324 324 323 323 325 326 327 327 325 323 323 322 323 327 328 327 327 327 327 328 327 325 326 327 326
329 329 329 330 330 330 330 330 331 331 331 330 330 330 330 330 330 331 330 331 331 331 331 330 330 329 327 329 330 328 325 323 322 322 322 322 323 322 322 322 321 321 325 326 325 326 325 323 322 321 320 323 326 327 326 327 328 328 326 325 326 328 327
328 329 329 329 330 330 330 330 331 331 331 330 329 329 328 328 329 330 331 331 331 329 327 327 328 327 327 327 329 328 326 323 321 321 321 321 322 322 321 320 320 321 322 324 323 325 326 324 322 322 321 321 323 326 326 327 328 327 326 327 328 328 328
328 327 327 328 330 330 329 329 330 330 330 329 328 328 328 328 330 331 331 330 328 325 325 327 327 328 328 328 330 329 326 323 321 321 322 321 321 321 320 320 321 321 321 322 322 323 325 325 323 322 322 321 321 323 326 327 328 327 327 329 329 329 329
326 326 327 328 329 330 329 328 329 330 328 327 327 327 327 328 330 331 329 328 325 324 327 329 328 329 330 330 330 328 323 321 322 322 321 320 319 320 320 320 322 321 322 322 322 323 324 325 324 323 322 322 320 321 325 328 328 327 328 329 330 329 329
325 325 328 328 329 330 329 328 328 327 326 325 326 326 327 329 330 329 327 325 325 327 329 328 327 328 329 330 330 326 322 322 322 321 321 320 320 320 321 322 322 322 322 322 321 321 322 323 323 323 323 322 321 320 323 326 328 328 328 330 331 330 329
326 325 326 328 329 329 329 327 326 325 325 325 325 326 327 328 327 326 325 326 326 328 329 327 325 325 327 330 329 324 322 322 321 320 321 320 320 320 321 321 322 321 322 322 321 321 322 322 323 323 323 323 322 321 321 324 327 328 327 327 329 331 331
324 324 325 326 327 328 328 326 324 325 325 325 325 325 325 326 325 325 327 328 328 328 328 325 324 325 328 330 328 323 321 321 320 321 322 321 320 321 321 322 322 321 322 322 321 321 321 321 322 323 323 323 323 322 322 322 324 326 325 322 324 326 328
322 323 324 325 325 327 327 326 325 325 325 324 325 325 325 326 327 328 329 329 328 327 326 324 325 327 328 328 325 322 321 321 320 321 322 321 320 321 321 322 322 322 322 322 321 321 321 321 322 322 322 323 323 322 322 322 322 323 323 321 321 321 322
321 322 323 323 323 325 326 326 325 325 325 326 325 326 327 327 327 328 329 328 327 327 325 324 326 328 328 325 323 322 321 321 321 322 321 321 321 321 321 322 323 322 322 322 321 320 321 320 321 321 322 322 323 322 322 322 321 321 322 322 321 321 320
322 323 323 323 324 325 327 326 325 325 326 326 326 327 327 327 326 327 328 328 328 327 324 323 325 326 326 324 322 321 322 322 322 322 321 320 321 321 322 323 323 322 322 321 321 320 320 320 320 321 321 322 322 323 322 322 321 321 321 322 321 320 319
325 325 325 326 325 326 327 326 326 326 325 326 327 327 326 326 326 326 327 327 328 326 324 323 324 324 324 323 322 322 322 322 322 321 321 321 322 322 322 323 323 323 322 322 321 320 320 320 320 320 321 321 322 322 322 321 320 320 320 321 321 320 319
326 327 327 327 327 327 327 326 326 326 326 326 327 326 326 326 325 326 326 325 326 325 324 324 324 323 323 322 322 322 322 321 322 322 322 321 322 322 323 324 323 323 322 322 321 320 320 320 320 319 320 320 321 322 321 321 320 320 319 319 319 319 319
Wind_Speed
7 6 6 6 7 6 6 9 9 9 12 12 10 8 7 6 5 4 2 1 3 6 8 8 9 9 9 10 11 13 14 15 15 16 17 17 17 17 17 16 15 13 12 13 14 14 14 13 14 17 18 19 21 23 25 26 26 26 27 28 29 30 29
7 6 6 7 6 6 7 9 8 9 13 12 9 8 7 7 6 4 3 1 2 5 6 7 8 8 8 9 11 11 11 12 13 14 15 16 16 15 15 14 14 14 14 14 15 15 16 15 16 17 18 19 21 24 27 29 29 28 29 29 31 32 32
7 7 7 7 6 6 7 8 8 11 14 12 9 8 8 8 6 4 3 1 2 3 4 6 6 7 9 11 11 10 10 11 12 13 15 16 16 15 14 14 14 15 14 13 13 13 14 14 15 16 17 19 22 24 26 29 30 30 29 30 31 33 34
7 8 8 7 6 6 7 9 10 13 14 12 9 9 9 8 6 5 3 1 2 2 4 6 6 7 10 11 11 10 10 11 11 12 13 14 14 14 14 14 14 15 15 13 13 13 13 14 14 15 16 19 21 23 25 27 30 30 30 30 30 33 34
8 7 7 6 6 5 6 9 11 15 15 12 9 9 9 8 7 6 4 2 2 2 4 5 5 7 10 11 11 11 11 12 11 11 12 12 13 13 13 14 14 14 14 14 13 13 13 14 15 15 16 17 19 22 24 26 28 29 30 29 30 32 33
8 8 7 6 6 5 6 10 14 17 17 12 10 10 10 9 9 7 5 3 2 2 4 4 5 7 9 10 11 11 12 12 12 11 12 11 12 13 13 13 13 13 14 14 13 13 13 13 14 15 17 17 18 21 23 25 27 28 29 30 30 31 33
8 8 7 6 6 5 7 11 15 17 15 11 11 11 10 10 9 7 5 3 3 3 4 5 5 6 8 9 10 11 11 12 12 12 12 11 10 10 11 12 13 14 14 14 13 13 12 13 14 15 17 18 19 22 24 25 26 26 28 30 31 32 33
9 7 7 7 6 6 7 11 14 15 13 11 11 11 11 10 9 7 5 4 3 3 4 4 4 5 6 8 9 11 11 11 11 11 12 11 10 9 10 12 14 15 15 15 14 13 12 13 15 16 18 20 22 23 25 26 26 26 26 28 31 32 33
7 7 7 7 6 6 8 11 13 13 12 12 12 11 11 10 8 6 5 4 3 3 4 4 4 4 5 8 10 10 10 10 10 11 12 13 11 10 10 12 13 15 16 16 15 14 14 14 16 18 20 22 23 25 26 27 27 27 27 28 30 32 32
7 7 7 6 6 6 8 9 10 11 11 12 11 11 10 9 8 6 5 4 3 3 4 4 4 4 6 8 10 10 9 9 10 12 14 14 12 11 11 12 13 14 15 16 16 16 16 17 18 19 21 23 24 26 28 28 28 27 27 27 28 29 30
7 7 7 6 6 5 6 7 8 10 11 11 11 11 9 9 7 6 5 4 4 4 4 4 5 6 8 9 10 11 10 9 10 12 14 14 13 12 12 13 13 14 14 15 16 17 18 20 20 21 22 24 25 27 28 28 27 26 27 26 24 25 27
7 7 7 7 6 5 6 6 8 10 11 10 11 10 9 8 7 5 5 4 5 5 5 5 5 7 9 10 11 11 11 9 10 12 13 13 13 13 13 14 14 15 16 17 18 19 20 21 21 22 23 24 25 27 28 27 26 24 24 24 23 22 23
8 7 7 7 6 5 5 6 7 9 11 11 11 10 9 8 7 6 6 5 5 6 6 5 5 8 10 11 11 12 11 10 10 12 13 13 14 14 15 14 14 15 16 17 18 19 20 22 22 22 23 25 26 27 27 27 25 22 21 22 22 22 22
8 7 6 6 6 6 6 6 7 9 12 12 12 11 10 9 8 7 7 6 6 6 6 6 7 9 11 11 12 12 11 11 11 12 13 14 15 16 16 16 15 15 16 17 17 17 19 22 24 24 23 25 26 27 27 25 22 21 21 22 21 19 19
8 8 7 7 7 7 8 8 7 9 12 13 13 13 12 10 10 9 8 6 5 5 6 6 8 10 11 12 12 12 11 10 11 12 13 15 16 16 17 16 16 16 17 17 16 16 18 20 23 24 24 25 25 24 25 23 21 22 23 23 22 21 20
9 9 9 9 8 8 8 8 8 10 12 13 14 15 14 13 12 11 8 5 4 5 6 7 9 10 11 12 12 12 11 11 11 11 12 14 15 16 17 17 16 15 16 17 16 16 17 19 21 23 23 23 23 22 21 20 22 24 24 23 23 24 23
10 9 9 8 8 8 8 7 7 9 11 13 16 17 16 14 12 10 8 6 5 6 7 8 10 10 11 12 12 12 12 11 11 11 12 13 15 16 17 17 17 16 16 16 16 17 19 20 20 21 22 22 22 21 19 19 22 25 26 26 26 26 25
10 9 9 8 8 8 8 7 7 9 12 16 19 19 17 13 11 10 9 8 7 7 7 9 10 10 11 11 12 11 11 11 11 12 13 14 16 17 17 17 18 17 17 16 15 17 18 18 18 19 20 20 20 19 18 19 23 25 26 29 30 30 29
10 10 9 9 9 9 8 8 9 13 17 19 21 20 16 12 10 10 9 9 9 8 9 9 9 10 11 11 11 11 11 11 12 13 14 16 18 19 18 18 18 17 17 16 16 16 15 14 14 16 18 18 18 16 17 19 22 24 26 29 32 31 29
9 9 9 8 9 8 8 10 13 17 20 21 21 18 14 11 10 9 9 10 11 11 11 11 10 10 11 12 12 13 12 12 13 14 16 19 20 19 18 18 17 16 15 16 17 17 15 13 12 13 15 16 15 15 16 19 21 24 26 29 33 32 28
9 9 9 8 8 8 9 12 15 18 21 22 20 17 15 13 11 10 10 11 12 13 13 13 12 12 12 13 13 13 13 14 15 16 18 20 19 16 15 16 16 15 14 16 17 18 18 14 11 11 12 13 13 13 15 18 21 24 26 29 33 33 29
10 10 10 10 11 11 14 18 20 22 24 23 20 18 17 15 13 13 13 12 13 15 15 15 15 15 14 14 14 14 14 15 17 18 20 19 16 13 13 14 15 14 14 15 17 17 18 14 9 9 10 11 10 12 15 17 20 24 26 28 33 34 31
10 11 11 12 14 17 21 24 25 26 25 22 19 19 18 16 14 14 14 14 15 16 16 16 16 16 16 15 14 14 13 14 16 19 20 17 13 12 13 13 15 15 15 16 17 16 15 12 9 8 10 10 10 11 13 16 19 23 25 27 31 33 32
8 11 11 12 14 17 21 25 26 26 24 21 19 19 18 16 15 15 15 16 17 17 16 17 16 16 15 14 13 12 12 13 15 18 18 15 12 12 13 14 15 16 16 16 16 14 12 11 9 9 10 10 9 10 12 14 16 20 23 25 29 30 29
6 8 10 13 16 19 23 27 27 24 21 20 19 19 18 16 15 15 16 18 18 17 17 17 16 14 14 13 13 13 12 13 14 15 15 13 12 12 14 15 16 17 16 15 13 11 11 11 10 10 11 11 10 9 11 13 14 18 21 22 26 27 27
7 9 12 15 19 21 24 25 23 20 20 21 20 18 17 16 15 15 17 18 18 18 19 19 17 14 13 13 14 13 12 12 13 12 12 12 12 12 13 14 14 15 15 12 10 10 10 11 11 12 13 13 11 9 10 12 13 16 18 19 21 24 24
12 14 16 19 21 21 20 21 21 22 22 22 20 18 17 16 15 17 18 18 18 19 19 19 17 15 13 13 13 13 12 12 11 10 11 12 12 11 11 11 12 14 13 11 10 11 11 10 10 11 13 14 11 8 8 10 11 13 15 17 18 19 20
11 13 15 17 19 19 19 20 20 22 22 21 21 19 17 15 16 17 17 17 18 18 17 16 16 15 14 13 13 13 12 10 9 9 10 12 10 8 8 9 11 13 13 13 13 14 12 10 10 10 13 14 12 8 6 8 10 11 13 16 16 16 16
12 14 15 16 18 20 21 21 21 23 23 22 21 20 17 15 16 17 16 17 17 15 14 13 14 14 14 13 14 13 11 9 9 8 8 9 8 6 7 10 12 13 14 14 15 15 13 12 11 12 12 14 14 11 7 7 9 10 11 14 15 15 14
13 14 16 18 21 23 23 22 22 23 23 22 21 19 17 17 17 17 16 16 15 13 12 12 12 13 13 13 13 11 9 9 9 7 5 6 6 6 8 10 11 12 13 14 15 15 14 13 13 14 14 13 15 14 10 8 8 9 9 11 13 14 14
15 17 18 20 22 23 23 22 21 22 22 20 18 17 17 17 17 17 16 15 14 13 12 12 13 13 12 12 11 8 8 8 7 5 3 5 6 7 9 9 9 10 12 14 16 17 17 16 15 15 15 14 14 15 13 10 9 10 10 11 11 12 13
14 16 17 18 20 21 21 20 19 18 17 17 16 16 16 16 17 17 17 15 14 13 12 13 14 13 12 12 10 7 6 6 5 4 4 5 5 6 8 8 7 9 11 13 16 18 18 17 16 16 16 16 15 15 14 12 11 11 12 12 11 10 11
11 15 17 19 20 20 19 17 15 15 16 17 18 16 16 17 17 17 17 15 13 12 12 14 14 12 11 12 10 6 5 6 6 5 5 5 5 7 7 7 7 9 11 12 14 16 17 17 17 16 16 16 16 16 15 14 13 12 11 12 13 12 11
13 16 18 19 17 16 16 16 16 17 17 19 19 17 15 15 15 14 14 12 10 10 11 13 14 11 11 12 10 7 6 7 7 6 6 5 6 7 7 7 8 10 10 10 12 13 14 15 15 14 14 14 14 15 16 15 15 13 12 12 13 13 13
14 16 18 17 15 15 17 18 18 17 18 20 20 17 14 13 12 10 10 10 9 9 11 12 11 9 11 12 11 8 7 8 9 8 8 6 7 8 7 7 9 10 9 9 10 11 13 14 14 14 14 13 11 11 13 15 15 14 12 11 12 13 13
10 11 12 12 12 13 14 15 15 15 18 19 18 15 14 13 11 9 9 9 9 9 10 10 9 8 9 12 12 9 8 9 11 11 9 7 8 9 7 6 8 9 9 8 8 10 11 13 14 14 14 14 12 10 10 12 13 12 11 10 10 11 12
5 6 6 6 7 7 9 11 12 13 15 17 16 14 14 13 11 10 10 9 9 9 10 11 11 11 11 12 13 11 10 10 12 13 11 8 9 9 7 6 7 8 8 7 7 7 10 12 14 15 15 15 14 12 9 9 9 10 10 11 10 10 11
3 3 3 4 5 7 8 10 11 12 14 15 14 13 13 12 12 11 10 10 11 11 11 11 12 12 12 12 13 12 11 11 12 14 13 10 10 8 6 6 8 8 8 7 6 6 8 11 15 17 18 17 17 16 14 10 8 8 10 11 11 11 11
Wind_Direction
166 174 182 186 192 194 195 196 194 183 176 173 167 165 169 165 159 159 148 77 359 351 346 346 348 344 344 345 340 341 340 339 339 340 339 335 333 328 323 322 322 317 308 303 304 304 303 299 293 292 288 279 274 275 277 278 278 276 274 273 271 269 265
170 178 187 188 192 196 202 201 190 178 177 174 171 172 172 169 167 171 169 130 357 348 344 343 347 353 356 345 336 336 335 333 332 331 330 329 329 330 326 324 323 321 317 310 306 304 301 297 291 291 290 282 276 276 278 279 279 277 274 271 268 265 263
178 184 187 189 193 196 201 202 191 182 182 181 179 179 175 172 174 184 188 191 351 349 340 334 339 352 354 344 336 334 330 328 327 324 322 321 320 319 319 319 319 318 317 313 310 304 299 297 294 291 289 285 282 281 281 280 279 277 274 271 267 263 260
185 187 186 191 198 201 208 207 197 190 189 188 184 181 177 176 184 196 203 262 330 341 332 327 329 341 346 344 339 335 332 330 328 326 325 324 320 317 314 313 313 313 312 312 311 310 307 305 302 299 295 292 291 288 286 283 280 278 274 268 265 263 258
188 188 186 195 201 208 217 213 203 194 191 188 182 178 179 184 195 202 210 257 300 315 329 326 319 331 342 344 339 335 334 334 333 335 338 336 330 324 320 318 316 313 312 313 315 314 315 315 314 314 311 306 302 299 294 291 287 284 278 269 262 258 256
185 189 190 195 198 205 217 218 209 196 188 186 182 181 185 193 201 205 217 253 270 297 326 320 306 325 339 339 336 334 335 337 336 336 339 341 338 333 332 332 327 321 315 313 315 318 320 323 323 323 321 318 314 308 303 299 293 288 283 274 264 257 253
182 187 190 192 196 206 216 217 208 193 185 182 181 187 194 200 207 211 224 249 262 291 318 311 304 318 330 332 333 332 334 337 335 332 331 332 334 333 338 342 338 332 323 315 317 322 323 325 326 325 323 321 317 313 308 302 295 289 283 276 268 261 255
180 181 186 193 200 204 208 207 198 186 181 180 183 193 202 206 211 219 232 245 255 288 306 300 300 311 320 329 332 329 331 337 338 336 329 325 323 324 333 343 343 338 329 321 320 321 320 321 324 325 325 321 317 314 309 303 297 292 286 277 269 262 257
178 182 190 196 198 199 203 199 188 179 180 185 191 202 210 212 216 224 237 240 244 283 299 289 285 299 315 326 332 330 327 330 340 342 334 327 319 314 321 331 337 338 332 323 318 316 314 314 318 323 324 321 318 315 310 305 299 294 290 281 271 261 256
176 188 198 205 205 199 200 193 180 179 187 190 197 209 215 216 220 228 238 246 262 295 302 280 272 295 316 323 330 333 327 326 336 340 337 332 322 314 317 322 330 336 332 324 316 313 311 310 312 316 319 319 318 317 313 308 304 300 295 287 276 264 257
182 191 199 208 207 192 187 181 177 186 192 194 201 211 215 215 220 232 248 268 286 301 303 278 266 293 315 320 325 330 330 328 334 338 339 337 332 325 320 320 325 331 333 330 324 318 316 314 313 313 316 317 317 317 316 312 309 306 302 296 284 270 264
186 192 198 204 199 187 179 177 185 193 192 195 202 207 209 211 217 236 258 275 282 289 297 288 275 294 313 318 321 327 330 330 330 335 338 339 340 338 331 325 324 327 332 335 331 328 325 323 319 315 314 316 318 320 319 317 316 312 309 304 292 276 269
189 193 200 203 192 178 168 172 193 194 187 190 197 201 206 209 217 238 255 268 275 279 289 295 289 300 312 315 318 324 328 330 329 328 330 333 337 340 339 335 331 333 337 335 333 335 333 328 323 319 317 318 320 323 322 319 318 319 320 318 307 289 275
191 196 204 203 188 176 169 178 194 188 182 186 193 199 204 209 220 235 247 264 277 276 281 288 293 304 311 312 317 324 326 329 330 326 325 327 330 335 340 341 340 344 347 341 336 335 331 327 325 322 321 323 323 326 329 325 323 331 337 335 328 311 292
192 200 205 202 195 185 177 181 189 183 183 187 192 198 203 208 220 229 238 260 280 275 268 272 282 298 306 307 314 319 320 326 329 327 325 324 324 329 334 337 340 345 349 345 337 331 326 323 324 323 324 325 324 330 339 338 335 341 343 339 335 327 312
196 201 203 199 194 189 185 187 185 182 185 190 194 200 204 209 217 224 232 249 268 264 260 267 278 290 298 304 311 313 312 318 324 327 327 325 325 326 328 331 336 341 346 346 340 335 329 323 321 323 324 325 325 330 341 343 340 342 343 340 333 326 316
197 197 198 196 189 188 190 188 181 182 190 196 201 205 206 210 218 223 231 248 256 259 261 267 278 286 292 299 305 304 304 310 316 322 327 328 329 328 326 328 331 333 337 339 337 332 326 321 319 321 323 324 325 329 335 339 341 343 343 340 335 327 318
194 191 190 190 189 189 189 185 183 191 199 203 206 207 208 211 218 224 236 249 252 257 260 263 274 282 287 297 301 299 301 305 308 316 324 330 333 332 329 329 331 333 332 331 328 322 319 319 319 319 322 323 324 328 335 339 342 343 342 341 340 333 322
190 190 189 188 191 190 187 191 195 200 204 207 208 207 208 212 217 228 242 248 248 255 258 261 271 278 285 297 301 299 302 306 309 316 323 329 331 330 330 330 332 334 332 329 328 322 319 318 316 317 322 322 323 330 337 339 340 341 342 345 346 340 328
188 190 191 193 195 191 189 196 202 206 209 211 210 208 208 213 219 232 245 247 248 254 257 261 269 276 285 297 301 301 305 310 316 321 326 329 330 330 331 332 332 334 333 334 335 332 328 320 310 316 324 323 323 329 335 338 341 342 345 349 351 348 340
195 191 192 198 198 195 195 197 201 209 214 215 213 208 208 213 220 231 241 246 252 256 257 261 267 273 283 295 302 305 309 316 322 327 330 331 331 333 335 334 333 334 335 339 341 339 337 328 309 311 324 327 325 328 334 338 342 345 347 351 356 356 352
195 192 195 199 194 193 197 199 202 208 213 215 212 209 211 216 220 227 238 247 255 258 260 262 266 271 280 291 302 308 313 321 327 331 334 334 331 333 336 334 334 336 338 342 345 345 344 336 313 302 316 328 329 329 335 340 345 348 349 355 1 3 1
195 196 201 201 198 199 201 203 206 210 213 214 212 212 216 220 222 227 238 248 254 259 263 264 265 270 277 287 301 310 315 320 325 329 332 332 330 332 332 330 333 337 339 341 345 351 351 343 322 297 302 319 329 329 334 342 348 349 351 359 6 7 9
212 203 200 194 197 204 205 206 210 213 215 214 216 218 221 225 228 231 238 247 253 258 263 265 267 272 277 285 296 306 310 315 321 325 328 329 330 333 331 328 331 337 338 340 346 353 355 350 337 311 297 307 322 327 330 338 346 347 350 1 9 11 16
220 203 199 197 200 204 205 207 211 215 216 217 221 224 225 228 231 233 240 250 255 257 262 266 270 274 278 284 292 297 303 312 319 323 328 331 331 332 333 333 336 340 342 345 350 353 354 355 348 331 312 305 311 325 330 330 337 345 349 360 10 15 21
197 189 195 202 205 206 206 207 210 211 212 217 223 227 226 228 230 233 242 251 255 257 262 267 270 273 277 285 291 294 301 313 318 322 333 339 335 334 338 340 345 348 347 349 352 351 351 355 352 344 334 318 306 318 334 331 334 343 350 360 10 16 22
197 196 198 202 204 205 207 208 210 210 212 218 225 229 227 225 228 235 242 249 253 257 265 271 272 273 279 287 290 291 299 309 312 318 333 338 333 333 341 347 352 354 352 349 346 344 345 349 349 348 347 337 317 309 334 345 345 348 353 2 11 15 20
195 203 206 206 206 207 207 208 210 212 216 224 229 230 227 225 229 236 241 245 251 261 273 280 277 274 277 282 283 285 295 305 306 312 324 328 329 333 344 351 353 355 355 350 343 339 335 336 340 342 346 347 337 316 322 346 355 356 357 3 11 14 16
195 202 204 203 205 208 207 207 208 211 218 227 231 230 227 226 230 234 239 246 257 269 279 284 284 280 276 275 278 283 293 300 301 305 316 325 331 336 343 347 350 355 358 356 352 345 335 329 332 334 336 342 345 339 326 331 346 355 360 4 9 12 13
198 202 204 203 205 208 207 206 207 211 220 229 231 228 229 229 230 233 241 254 266 275 280 289 294 287 277 273 274 278 291 298 294 292 307 328 334 334 337 341 347 355 1 2 3 360 351 341 333 330 329 333 341 346 341 328 333 345 353 359 7 13 14
202 204 206 207 207 207 206 205 207 213 223 229 228 228 230 230 230 235 246 261 273 276 282 297 299 285 272 264 258 264 288 294 279 263 292 328 332 333 339 343 350 359 1 3 6 5 2 357 347 338 333 328 331 342 345 337 334 342 347 348 353 5 13
210 209 208 208 207 206 205 206 210 217 226 230 228 228 231 232 235 243 252 265 277 281 284 294 295 283 265 248 239 252 282 277 251 243 284 318 322 332 346 351 355 360 360 3 8 6 4 3 359 352 345 336 330 336 341 340 341 345 351 351 347 350 358
216 214 211 209 208 204 201 203 211 219 228 231 228 226 229 235 243 251 258 269 281 284 284 290 291 279 252 228 222 238 257 246 238 250 275 299 313 329 346 352 351 355 359 4 9 8 5 5 3 357 349 341 336 335 335 338 343 348 354 358 357 356 356
218 217 216 215 211 204 200 205 213 220 226 229 227 224 230 242 252 257 261 268 276 275 281 293 289 264 229 212 214 229 238 234 240 254 265 283 309 323 337 350 355 357 1 9 13 12 8 6 3 358 348 339 337 337 334 335 342 347 350 353 354 357 360
218 217 217 216 212 208 207 212 218 222 226 230 228 229 244 261 265 261 263 266 264 264 279 292 282 246 216 209 217 230 235 236 243 250 254 272 308 319 325 347 3 4 7 18 25 22 15 9 7 4 356 349 346 339 329 329 337 343 344 345 348 352 355
230 228 226 223 222 221 221 226 230 231 232 234 235 242 260 269 263 260 270 268 254 255 274 284 277 257 234 224 227 238 244 243 246 249 250 268 303 315 320 343 4 12 21 28 29 26 20 16 15 13 7 4 4 354 330 324 331 336 338 339 344 350 351
242 245 249 248 243 240 242 244 243 241 241 243 247 256 268 272 267 267 274 270 256 258 271 274 270 266 253 239 239 249 254 252 251 251 252 269 297 308 319 341 357 14 33 42 37 31 29 29 31 31 26 19 17 13 360 339 329 331 336 338 342 350 353
219 230 249 253 244 244 250 249 244 245 248 252 262 274 280 281 278 279 283 278 266 263 266 265 261 259 255 251 251 252 254 256 257 254 255 272 294 305 325 352 356 7 34 52 54 44 40 40 40 39 37 33 28 25 20 9 353 344 343 344 347 352 356